Home   Weather   Vitebsk   Past weeks
Flag for Belarus

Past Weather in Vitebsk, Belarus — Yesterday and Last 2 Weeks

Now
46 °F

Scattered clouds.


Feels Like: 41 °F
Forecast: 44 / 34 °F
Wind: 13 mph from Northwest

Location: Vitebsk

Current Time: Mar 21, 2019 at 3:54:00 pm

Latest Report: Mar 21, 2019 at 3:30 pm


Visibility: N/A

Pressure: 30.15 "Hg

Humidity: 57%

Dew Point: 32 °F

Location of VitebskLocation

Past Weather in Vitebsk — Graph

°F

Vitebsk Temperature Yesterday

Maximum temperature yesterday: 37 °F (at 12:00 pm)
Minimum temperature yesterday: 34 °F (at 8:00 am)
Average temperature yesterday: 36 °F

High & Low Weather Summary for the Past Weeks

 TemperatureHumidityPressure
High50 °F (Mar 18, 2:00 pm)100% (Mar 8, 10:00 am)30.27 "Hg (Mar 8, 10:00 am)
Low21 °F (Mar 7, 9:00 am)42% (Mar 9, 3:00 pm)29.30 "Hg (Mar 11, 4:00 am)
Average35 °F79%29.74 "Hg
* Reported Mar 6 2:00 pm — Mar 21 2:30 pm, Vitebsk. Weather by CustomWeather, © 2019

Note: Actual official high and low records may vary slightly from our data, if they occured in-between our weather recording intervals... More about our weather records

Advertising

Vitebsk Weather History for the Previous 24 Hours

Scroll right to see more
 ConditionsComfort  
Time TempWeatherWind HumidityBarometerVisibility
2:30 pm
Thu, Mar 21
45 °FScattered clouds.10 mph57%30.18 "HgN/A
2:00 pm45 °FScattered clouds.10 mph57%30.18 "HgN/A
1:30 pm41 °FScattered clouds.10 mph76%30.18 "HgN/A
1:00 pm41 °FScattered clouds.13 mph76%30.18 "HgN/A
12:30 pm39 °FScattered clouds.13 mph81%30.18 "HgN/A
12:00 pm39 °FPartly sunny.8 mph81%30.18 "HgN/A
11:30 am37 °FPartly sunny.8 mph87%30.18 "HgN/A
11:00 am37 °FPartly sunny.8 mph87%30.15 "HgN/A
10:30 am36 °FPartly sunny.8 mph93%30.15 "HgN/A
10:00 am36 °FPartly sunny.6 mph93%30.12 "HgN/A
9:00 am36 °FBroken clouds.6 mph93%30.12 "HgN/A
8:00 am34 °FBroken clouds.8 mph100%30.12 "HgN/A
7:00 pm
Wed, Mar 20
36 °FPartly sunny.8 mph70%30.27 "HgN/A
6:00 pm36 °FPartly sunny.10 mph65%30.27 "HgN/A
5:00 pm37 °FPartly sunny.13 mph60%30.27 "HgN/A
4:30 pm37 °FPartly sunny.13 mph65%30.27 "HgN/A
3:30 pm37 °FPartly sunny.10 mph60%30.27 "HgN/A
3:00 pm37 °FPartly sunny.10 mph60%30.27 "HgN/A
Weather by CustomWeather, © 2019

See weather overview